Zurück zum Katalog

USA 329

AktivMilitärVLEO
NORAD 52890·PAYLOAD·🇺🇸 United States

Gestartet Jun 19, 2022 von Cape Canaveral Space Force Station

Loading…

Nächste Überflüge (nächste 24 Stunden)

TLE

VeraltetSource: Mike McCants

Epoche: Nov 11, 2024, 17:15 UTC

1 52890U 22064C   24316.71940197 0.00000160  00000-0  88312-5 0    09
2 52890  53.0125 209.4844 0005879  20.4589 339.5410 15.13426190    07

Verfolge USA 329 in Echtzeit mit AllMySat

Download on the App Store